Location: Miami
(25.6830°N, 80.1700°W)
Time: 10:45:45
(UTC-04:00)

Tiangong 1 - Visible Passes

Search period start: 21 January 2018 00:00
Search period end: 31 January 2018 00:00
Orbit: 262 x 287 km, 42.8° (Epoch: 21 January)

Date Brightness Start Highest point End Pass type
(mag) Time Alt. Az. Time Alt. Az. Time Alt. Az.
24 Jan 3.1 20:30:17 10° NW 20:31:00 17° NW 20:31:00 17° NW visible
25 Jan 2.6 20:29:16 10° WNW 20:30:58 28° WSW 20:30:58 28° WSW visible
26 Jan 3.5 20:28:45 10° WSW 20:30:04 13° SW 20:31:08 11° SSW visible
